Flag for U.S.A. Weather past 2 weeks in Idaho Falls, Idaho, U.S.A.

Now
26 °F

Clear.


Feels Like: 21 °F
Forecast: 23 / 41 °F
Wind: 5 mph from North

Location: Fanning Field

Current Time: Jan 27, 2015 at 4:14:44 AM

Latest Report: Jan 27, 2015 at 3:53 AM


Visibility: 10 mi

Pressure: 30.20 "Hg

Humidity: 88%

Dew point: 23 °F

Location of Idaho FallsLocation

Historic Weather in Idaho Falls — Graph

°F

Idaho Falls temperature yesterday

Maximum temperature yesterday: 41 °F (at 3:53 PM)
Minimum temperature yesterday: 20 °F (at 6:53 AM)
Average temperature yesterday: 29 °F

Past Weeks' High & Low Weather Summary

 TemperatureHumidityPressure
High58 °F (Jan 12, 3:53 PM)100% (Jan 12, 7:53 PM)30.73 "Hg (Jan 12, 7:53 PM)
Low6 °F (Jan 22, 4:53 AM)38% (Jan 12, 3:53 PM)30.08 "Hg (Jan 12, 3:53 PM)
Average26 °F86%30.44 "Hg
* Reported Jan 12 2:53 AM — Jan 27 2:53 AM, Idaho Falls, Weather by CustomWeather, © 2014

Note: Actual official high and low records may vary slightly from our data, if they occured in-between our weather recording intervals... More about our weather records

Advertising

Idaho Falls weather history for previous 24 hours

 ConditionsComfort  
Time TempWeatherWind HumidityBarometerVisibility
2:53 AM
Jan 27
26 °FClear.6 mph88%30.22 "Hg10 mi
1:53 AM27 °FClear.6 mph92%30.23 "Hg10 mi
12:53 AM28 °FClear.6 mph93%30.26 "Hg10 mi
11:53 PM
Jan 26
28 °FClear.3 mph93%30.28 "Hg10 mi
10:53 PM31 °FClear.No wind89%30.28 "Hg10 mi
9:53 PM32 °FClear.7 mph88%30.31 "Hg10 mi
8:53 PM32 °FClear.7 mph88%30.31 "Hg10 mi
7:53 PM32 °FClear.7 mph88%30.31 "Hg10 mi
6:53 PM35 °FClear.7 mph82%30.32 "Hg10 mi
5:53 PM36 °FSunny.10 mph82%30.32 "Hg10 mi
4:53 PM38 °FSunny.9 mph76%30.33 "Hg10 mi
3:53 PM41 °FSunny.8 mph70%30.34 "Hg10 mi
2:53 PM40 °FSunny.9 mph73%30.35 "Hg10 mi
1:53 PM40 °FSunny.8 mph73%30.39 "Hg10 mi
12:53 PM38 °FSunny.12 mph83%30.41 "Hg10 mi
11:53 AM34 °FSunny.6 mph92%30.46 "Hg10 mi
10:53 AM30 °FSunny.6 mph92%30.49 "Hg10 mi
9:53 AM26 °FSunny.5 mph92%30.51 "Hg10 mi
8:53 AM22 °FSunny.5 mph89%30.53 "Hg10 mi
7:53 AM21 °FClear.7 mph88%30.54 "Hg10 mi
6:53 AM20 °FClear.3 mph92%30.55 "Hg10 mi
5:53 AM21 °FPassing clouds.3 mph88%30.54 "Hg9 mi
5:02 AM23 °FIce fog.3 mph88%30.43 "Hg1 mi
4:53 AM23 °FIce fog.No wind92%30.54 "Hg0 mi
Weather by CustomWeather, © 2014

See weather overviewHow to use our weather pages